Weather Roundup
Issued by NWS Chicago, IL

Home | Current Version | Previous Version | Graphics & Text | Print | Product List | Glossary On
Versions: 1 2 3 4 5 6 7 8 9 10 11 12 13 14 15 16 17 18 19 20 21 22 23 24 25 26 27 28 29 30 31 32 33 34 35 36 37 38 39 40 41 42 43 44 45 46 47 48 49 50
597
NZUS59 KLOT 090908
HRRLOT

CHICAGO AREA WEATHER ROUNDUP
NATIONAL WEATHER SERVICE CHICAGO/ROMEOVILLE IL
300 AM CST TUE FEB 09 2016

NOTE: "FAIR" INDICATES FEW OR NO CLOUDS BELOW 12,000 FEET WITH NO
SIGNIFICANT WEATHER AND/OR OBSTRUCTIONS TO VISIBILITY.

* THESE STATIONS ARE NOT UNDER NWS QUALITY CONTROL. THEY ALSO MAY NOT
  REPORT WEATHER SUCH AS PRECIPITATION OR FOG.

ILZ005-006-012>014-019>023-091000-
NORTHEAST ILLINOIS

CITY           SKY/WX    TMP DP  RH WIND       PRES   REMARKS
OHARE          LGT SNOW  18  14  84 NW12      29.72F FOG     WCI   5
MIDWAY         LGT SNOW  20  14  77 NW8       29.73S FOG     WCI  10
AURORA         CLOUDY    20  12  71 NW14      29.76R WCI   7
LANSING*       FLURRIES  21  17  83 NW8       29.73S WCI  11
JOLIET*        CLOUDY    22  15  74 NW9       29.76S WCI  12
WAUKEGAN       LGT SNOW  17  13  84 NW9G21    29.71S FOG     WCI   6
DUPAGE AIRPORT FLURRIES  18  10  71 NW17      29.74R WCI   3
WHEELING       LGT SNOW  18  13  80 NW14      29.74S WCI   4
KANKAKEE*      LGT SNOW  22  17  81 W9        29.75S WCI  11
MORRIS*        CLOUDY    21  14  75 NW10      29.73F WCI   9
LEWIS AIRPORT* LGT SNOW  20  14  78 NW13      29.74S WCI   7
$$

WIZ051-052-058>065-066-070>072-091000-
SOUTHEAST WISCONSIN

CITY           SKY/WX    TMP DP  RH WIND       PRES   REMARKS
MILWAUKEE      LGT SNOW  18  13  80 NW12      29.73R WCI   5
KENOSHA*       FLURRIES  18  12  77 NW10      29.72S WCI   6
RACINE*        FLURRIES  19  12  74 NW12      29.73S WCI   7
BURLINGTON     CLOUDY    15  10  82 NW13      29.74S WCI   1
WAUKESHA       CLOUDY    14  10  85 NW13      29.73F WCI   0
$$

INZ001>003-010>013-019-020-091000-
NORTHWEST INDIANA

CITY           SKY/WX    TMP DP  RH WIND       PRES   REMARKS
GARY*          LGT SNOW  23  17  78 W10       29.73S WCI  12
MICHIGAN CITY* NOT AVBL
RENSSELAER*    NOT AVBL
VALPARAISO     LGT SNOW  22  18  85 W12       29.69F WCI  10
$$

LMZ740>746-091000-
SOUTHERN LAKE MICHIGAN

STATION/POSITION TIME  SKY/WX   TEMP WIND        PRES    VSBY
                                AIR  DIR/SP/G
                 (UTC)          (F)  (DEG/KT/KT) (MB)    (MI)
HARRISON CRIB    0800            21  310/ 17/ 21   N/A
BURNHAM HARBOR   0900            21  270/  9/ 13   N/A
CALUMET HARBOR   0800            21  270/  8/ 17 1006.1S
BURNS HARBOR     0820            24  310/ 15/ 22 1006.8S
MICHIGAN CITY    0800            24  260/ 23/ 25   N/A
$$

ABBREVIATIONS USED IN REMARKS
   TC - TEMPERATURE IN CELSIUS
  WCI - WIND CHILL INDEX
   HX - HEAT INDEX
  VSB - VISIBILITY
$$




USA.gov is the U.S. government's official web portal to all federal, state and local government web resources and services.